| time (UTC) | temp C | wind direction | speed KPH | gust KPH | rain 1hr cm | rain 24hr cm | rain mn cm | humidity % | barometer mb |
| 20260508144636 | 18 | 360 | 0.0 | 8.0 | 0.00 | 0.30 | 0.00 | 68 | 997.1 |
| 20260508143112 | 17 | 360 | 0.0 | 6.4 | 0.00 | 0.30 | 0.00 | 73 | 996.9 |
| 20260508141606 | 18 | 360 | 0.0 | 6.4 | 0.00 | 0.30 | 0.00 | 72 | 997.1 |
| 20260508140055 | 17 | 360 | 0.0 | 6.4 | 0.00 | 0.30 | 0.00 | 79 | 997.1 |
| 20260508134553 | 16 | 360 | 0.0 | 4.8 | 0.00 | 0.33 | 0.00 | 81 | 997.1 |
| 20260508133109 | 14 | 360 | 0.0 | 3.2 | 0.00 | 0.33 | 0.00 | 86 | 997.0 |
| 20260508131539 | 12 | 360 | 0.0 | 1.6 | 0.00 | 0.33 | 0.00 | 96 | 997.1 |
| 20260508130038 | 11 | 360 | 0.0 | 3.2 | 0.00 | 0.33 | 0.00 | 96 | 996.9 |
| 20260508124536 | 10 | 360 | 1.6 | 4.8 | 0.00 | 0.66 | 0.00 | 96 | 996.6 |
| 20260508123036 | 10 | 360 | 0.0 | 4.8 | 0.00 | 0.66 | 0.00 | 96 | 996.5 |
| 20260508121537 | 9 | 360 | 0.0 | 1.6 | 0.00 | 0.66 | 0.00 | 95 | 996.4 |
| 20260508120032 | 8 | 360 | 0.0 | 0.0 | 0.00 | 0.66 | 0.00 | 95 | 996.3 |
| 20260508114531 | 8 | 360 | 0.0 | 1.6 | 0.00 | 0.69 | 0.00 | 95 | 996.0 |
| 20260508113030 | 8 | 360 | 0.0 | 0.0 | 0.00 | 0.69 | 0.00 | 95 | 995.8 |
| 20260508111527 | 8 | 360 | 0.0 | 0.0 | 0.00 | 0.69 | 0.00 | 95 | 995.6 |
| 20260508110043 | 9 | 360 | 0.0 | 0.0 | 0.00 | 0.69 | 0.00 | 95 | 995.4 |
| 20260508104521 | 9 | 360 | 0.0 | 0.0 | 0.00 | 0.69 | 0.00 | 94 | 995.0 |
| 20260508103020 | 10 | 360 | 0.0 | 0.0 | 0.00 | 0.69 | 0.00 | 95 | 994.7 |
| 20260508101517 | 10 | 360 | 0.0 | 0.0 | 0.00 | 0.69 | 0.00 | 95 | 994.4 |
| 20260508100020 | 10 | 360 | 0.0 | 0.0 | 0.00 | 0.69 | 0.00 | 95 | 994.3 |
| 20260508094514 | 10 | 360 | 0.0 | 0.0 | 0.00 | 0.71 | 0.00 | 94 | 994.3 |
| 20260508093014 | 10 | 360 | 0.0 | 0.0 | 0.00 | 0.71 | 0.00 | 94 | 994.1 |
| 20260508091513 | 10 | 360 | 0.0 | 0.0 | 0.00 | 0.71 | 0.00 | 95 | 994.1 |
| 20260508090022 | 10 | 360 | 0.0 | 0.0 | 0.00 | 0.71 | 0.00 | 95 | 994.0 |
| 20260508084508 | 10 | 360 | 0.0 | 0.0 | 0.00 | 0.86 | 0.00 | 95 | 993.9 |
| 20260508083008 | 10 | 360 | 0.0 | 0.0 | 0.00 | 0.86 | 0.00 | 95 | 993.7 |
| 20260508081606 | 10 | 360 | 0.0 | 0.0 | 0.00 | 0.86 | 0.00 | 95 | 993.6 |
| 20260508080006 | 10 | 360 | 0.0 | 0.0 | 0.00 | 0.86 | 0.00 | 94 | 993.4 |
| 20260508074510 | 10 | 360 | 0.0 | 0.0 | 0.00 | 1.22 | 0.00 | 94 | 993.3 |
| 20260508073000 | 10 | 360 | 0.0 | 0.0 | 0.00 | 1.22 | 0.00 | 94 | 993.2 |
| 20260508071605 | 11 | 360 | 0.0 | 0.0 | 0.00 | 1.22 | 0.00 | 94 | 993.2 |
| 20260508070058 | 11 | 360 | 0.0 | 0.0 | 0.00 | 1.22 | 0.00 | 94 | 993.1 |
| 20260508064556 | 11 | 360 | 0.0 | 0.0 | 0.00 | 1.65 | 0.00 | 94 | 993.1 |
| 20260508063055 | 11 | 360 | 0.0 | 0.0 | 0.00 | 1.65 | 0.00 | 94 | 993.1 |
| 20260508061553 | 11 | 360 | 0.0 | 0.0 | 0.00 | 1.65 | 0.00 | 94 | 993.2 |
| 20260508060052 | 11 | 360 | 0.0 | 0.0 | 0.00 | 1.65 | 0.00 | 94 | 993.2 |
| 20260508054551 | 12 | 360 | 0.0 | 0.0 | 0.00 | 1.98 | 0.00 | 94 | 993.2 |
| 20260508053113 | 12 | 360 | 0.0 | 0.0 | 0.00 | 1.98 | 0.00 | 94 | 993.1 |
| 20260508051547 | 12 | 360 | 0.0 | 0.0 | 0.00 | 1.98 | 0.00 | 94 | 993.2 |
| 20260508050045 | 12 | 360 | 0.0 | 0.0 | 0.00 | 1.98 | 0.00 | 94 | 992.9 |
| 20260508044543 | 12 | 360 | 0.0 | 0.0 | 0.00 | 2.01 | 0.00 | 94 | 992.8 |
| 20260508043040 | 12 | 360 | 0.0 | 0.0 | 0.00 | 2.01 | 0.00 | 94 | 992.7 |
| 20260508041604 | 12 | 360 | 0.0 | 0.0 | 0.00 | 2.01 | 0.00 | 94 | 992.8 |
| 20260508040042 | 12 | 360 | 0.0 | 0.0 | 0.00 | 2.01 | 0.00 | 94 | 992.6 |
| 20260508034535 | 13 | 360 | 0.0 | 0.0 | 0.00 | 2.54 | 2.01 | 94 | 992.7 |
| 20260508033033 | 13 | 360 | 0.0 | 0.0 | 0.00 | 2.54 | 2.01 | 94 | 992.8 |
| 20260508031536 | 13 | 360 | 0.0 | 0.0 | 0.00 | 2.54 | 2.01 | 94 | 992.6 |
| 20260508030035 | 13 | 360 | 0.0 | 0.0 | 0.00 | 2.54 | 2.01 | 94 | 992.6 |
| 20260508024531 | 13 | 360 | 0.0 | 0.0 | 0.00 | 3.17 | 2.01 | 94 | 992.5 |
| 20260508023027 | 13 | 360 | 0.0 | 0.0 | 0.00 | 3.17 | 2.01 | 94 | 992.3 |
| 20260508021525 | 13 | 360 | 0.0 | 0.0 | 0.00 | 3.17 | 2.01 | 94 | 992.1 |
| 20260508020030 | 13 | 360 | 0.0 | 0.0 | 0.00 | 3.17 | 2.01 | 93 | 991.9 |
| 20260508014520 | 13 | 360 | 0.0 | 0.0 | 0.00 | 3.43 | 2.01 | 94 | 991.4 |
| 20260508013018 | 13 | 360 | 0.0 | 0.0 | 0.00 | 3.43 | 2.01 | 93 | 991.6 |
| 20260508011518 | 13 | 360 | 0.0 | 0.0 | 0.00 | 3.43 | 2.01 | 93 | 991.2 |
| 20260508010018 | 13 | 360 | 0.0 | 1.6 | 0.00 | 3.43 | 2.01 | 93 | 991.0 |
| 20260508004517 | 14 | 360 | 0.0 | 4.8 | 0.00 | 3.43 | 2.01 | 93 | 990.9 |
| 20260508003014 | 14 | 360 | 1.6 | 4.8 | 0.03 | 3.43 | 2.01 | 93 | 990.1 |
| 20260508001513 | 14 | 360 | 0.0 | 4.8 | 0.18 | 3.43 | 2.01 | 92 | 989.8 |
| 20260508000012 | 14 | 360 | 0.0 | 6.4 | 0.18 | 3.43 | 2.01 | 92 | 989.5 |
| 20260507234511 | 15 | 360 | 0.0 | 4.8 | 0.18 | 3.43 | 2.01 | 91 | 989.0 |
| 20260507233022 | 15 | 360 | 1.6 | 8.0 | 0.13 | 3.38 | 1.96 | 90 | 989.2 |
| 20260507231507 | 15 | 360 | 1.6 | 8.0 | 0.00 | 3.25 | 1.83 | 89 | 988.2 |
| 20260507230005 | 15 | 360 | 4.8 | 16.1 | 0.00 | 3.25 | 1.83 | 88 | 988.5 |
| 20260507224503 | 16 | 360 | 1.6 | 19.3 | 0.00 | 3.25 | 1.83 | 88 | 988.3 |
| 20260507223103 | 16 | 360 | 1.6 | 12.9 | 0.00 | 3.25 | 1.83 | 86 | 988.1 |
| 20260507221557 | 18 | 360 | 6.4 | 17.7 | 0.00 | 3.25 | 1.83 | 82 | 987.8 |
| 20260507220056 | 20 | 360 | 3.2 | 14.5 | 0.00 | 3.25 | 1.83 | 76 | 987.6 |
| 20260507214606 | 22 | 360 | 3.2 | 14.5 | 0.00 | 3.25 | 1.83 | 71 | 987.0 |
| 20260507213103 | 23 | 360 | 0.0 | 6.4 | 0.00 | 3.25 | 1.83 | 79 | 985.4 |
| 20260507211550 | 24 | 360 | 1.6 | 4.8 | 0.00 | 3.25 | 1.83 | 74 | 985.6 |
| 20260507210050 | 24 | 360 | 1.6 | 12.9 | 0.00 | 3.25 | 1.83 | 73 | 985.8 |
| 20260507204541 | 24 | 360 | 1.6 | 8.0 | 0.00 | 3.25 | 1.83 | 73 | 985.9 |
| 20260507203042 | 23 | 360 | 0.0 | 4.8 | 0.00 | 3.25 | 1.83 | 74 | 986.0 |
| 20260507201537 | 23 | 355 | 1.6 | 11.3 | 0.00 | 3.25 | 1.83 | 76 | 986.0 |
| 20260507200030 | 23 | 360 | 3.2 | 8.0 | 0.00 | 3.25 | 1.83 | 78 | 986.0 |
| 20260507194545 | 23 | 360 | 3.2 | 6.4 | 0.00 | 3.25 | 1.83 | 80 | 986.4 |
| 20260507193028 | 22 | 360 | 1.6 | 8.0 | 0.00 | 3.25 | 1.83 | 83 | 986.7 |
| 20260507191531 | 22 | 360 | 1.6 | 8.0 | 0.00 | 3.25 | 1.83 | 84 | 986.8 |
| 20260507190021 | 22 | 360 | 0.0 | 4.8 | 0.00 | 3.25 | 1.83 | 85 | 987.0 |
| 20260507184518 | 21 | 360 | 1.6 | 4.8 | 0.00 | 3.40 | 1.83 | 89 | 986.9 |
| 20260507183029 | 21 | 360 | 3.2 | 9.7 | 0.00 | 3.40 | 1.83 | 89 | 987.0 |
| 20260507181512 | 20 | 360 | 3.2 | 9.7 | 0.00 | 3.40 | 1.83 | 92 | 987.0 |
| 20260507180015 | 20 | 360 | 1.6 | 8.0 | 0.00 | 3.40 | 1.83 | 95 | 987.5 |
| 20260507174508 | 20 | 360 | 3.2 | 8.0 | 0.00 | 3.45 | 1.83 | 96 | 987.9 |
| 20260507173007 | 20 | 360 | 0.0 | 1.6 | 0.00 | 3.45 | 1.83 | 96 | 987.6 |
| 20260507171507 | 20 | 360 | 1.6 | 4.8 | 0.00 | 3.45 | 1.83 | 96 | 987.9 |
| 20260507170007 | 20 | 360 | 1.6 | 6.4 | 0.00 | 3.45 | 1.83 | 97 | 987.7 |
| 20260507164505 | 20 | 360 | 1.6 | 4.8 | 0.00 | 3.45 | 1.83 | 97 | 988.0 |
| 20260507163004 | 19 | 360 | 0.0 | 4.8 | 0.00 | 3.45 | 1.83 | 97 | 988.5 |
| 20260507161504 | 20 | 360 | 0.0 | 3.2 | 0.03 | 3.45 | 1.83 | 97 | 988.3 |
| 20260507160005 | 20 | 360 | 1.6 | 3.2 | 0.03 | 3.45 | 1.83 | 97 | 987.8 |
| 20260507154503 | 19 | 360 | 0.0 | 3.2 | 0.05 | 3.45 | 1.83 | 97 | 986.9 |
| 20260507153102 | 19 | 360 | 0.0 | 3.2 | 0.10 | 3.45 | 1.83 | 97 | 987.2 |
| 20260507151601 | 19 | 360 | 0.0 | 4.8 | 0.10 | 3.43 | 1.80 | 97 | 987.5 |
| 20260507150101 | 19 | 360 | 0.0 | 0.0 | 0.10 | 3.43 | 1.80 | 97 | 988.5 |